,,PA_Meas_PMT16A,,PR_Meas_QMR101_102,,RH_Meas_QMH101,,SR_Meas_QMS101,,TA_Meas_QMH101,,GenWind,,GenWind,
time,status,PA,status,PR,status,RH,status,SR,status,TA,status,DirAvg,status,SpdAvg,
2014-01-26, 00:00:04,VALID,918.73,VALID,0,VALID,97.1604,VALID,0,VALID,19.7418,VALID,162,VALID,0.238281,
2014-01-26, 00:01:04,VALID,918.741,VALID,0,VALID,97.1757,VALID,0,VALID,19.8003,VALID,162,VALID,0.517187,
2014-01-26, 00:02:04,VALID,918.781,VALID,0,VALID,97.1681,VALID,0,VALID,19.8003,VALID,162,VALID,0.254297,
2014-01-26, 00:03:04,VALID,918.775,VALID,0,VALID,97.1528,VALID,0,VALID,19.8198,VALID,162,VALID,0,
2014-01-26, 00:04:04,VALID,918.764,VALID,0,VALID,97.1528,VALID,0,VALID,19.8393,VALID,162,VALID,0,
2014-01-26, 00:05:04,VALID,918.729,VALID,0,VALID,97.1757,VALID,0,VALID,19.8393,VALID,162,VALID,0.221875,
2014-01-26, 00:06:04,VALID,918.75,VALID,0,VALID,97.1528,VALID,0,VALID,19.8393,VALID,162,VALID,0.513672,
2014-01-26, 00:07:04,VALID,918.743,VALID,0,VALID,97.1452,VALID,0,VALID,19.8588,VALID,162,VALID,0.534375,
2014-01-26, 00:08:04,VALID,918.75,VALID,0,VALID,97.1757,VALID,0,VALID,19.8198,VALID,162,VALID,0.697656,
2014-01-26, 00:09:04,VALID,918.74,VALID,0,VALID,97.1681,VALID,0,VALID,19.8198,VALID,162,VALID,0.455078,
2014-01-26, 00:10:04,VALID,918.751,VALID,0,VALID,97.1757,VALID,0,VALID,19.8003,VALID,162,VALID,0.501562,
2014-01-26, 00:11:04,VALID,918.755,VALID,0,VALID,97.1757,VALID,0.107441,VALID,19.8198,VALID,162,VALID,0.705078,
2014-01-26, 00:12:04,VALID,918.748,VALID,0,VALID,97.1681,VALID,0,VALID,19.8003,VALID,162,VALID,0.404687,
2014-01-26, 00:13:04,VALID,918.759,VALID,0,VALID,97.1757,VALID,0,VALID,19.8018,VALID,162,VALID,0.66875,
2014-01-26, 00:14:04,VALID,918.747,VALID,0,VALID,97.1833,VALID,0,VALID,19.7808,VALID,162,VALID,0.491406,
2014-01-26, 00:15:04,VALID,918.748,VALID,0,VALID,97.1681,VALID,0,VALID,19.8213,VALID,162,VALID,0.363281,
2014-01-26, 00:16:04,VALID,918.724,VALID,0,VALID,97.1909,VALID,0,VALID,19.7808,VALID,162,VALID,0.360938,
2014-01-26, 00:17:04,VALID,918.714,VALID,0,VALID,97.1833,VALID,0,VALID,19.8213,VALID,162,VALID,0.196094,
2014-01-26, 00:18:04,VALID,918.656,VALID,0,VALID,97.1757,VALID,0,VALID,19.8003,VALID,162,VALID,0.380078,
2014-01-26, 00:19:04,VALID,918.646,VALID,0,VALID,97.1757,VALID,0,VALID,19.8003,VALID,162,VALID,0.392969,
2014-01-26, 00:20:04,VALID,918.634,VALID,0,VALID,97.1528,VALID,0,VALID,19.8198,VALID,162,VALID,0.390234,
2014-01-26, 00:21:04,VALID,918.592,VALID,0,VALID,97.1681,VALID,0.107441,VALID,19.8408,VALID,162,VALID,0.905859,
2014-01-26, 00:22:04,VALID,918.579,VALID,0,VALID,97.1604,VALID,0,VALID,19.8198,VALID,162,VALID,0.489844,
2014-01-26, 00:23:04,VALID,918.577,VALID,0,VALID,97.1681,VALID,0,VALID,19.8198,VALID,162,VALID,0.526172,
2014-01-26, 00:24:04,VALID,918.578,VALID,0,VALID,97.1604,VALID,0,VALID,19.8018,VALID,162,VALID,0.592969,
2014-01-26, 00:25:04,VALID,918.554,VALID,0,VALID,97.1681,VALID,0,VALID,19.7808,VALID,161,VALID,0.614453,
2014-01-26, 00:26:04,VALID,918.567,VALID,0,VALID,97.1757,VALID,0,VALID,19.7613,VALID,150,VALID,0.576172,
2014-01-26, 00:27:04,VALID,918.56,VALID,0,VALID,97.1681,VALID,0,VALID,19.7418,VALID,132,VALID,1.05195,
2014-01-26, 00:28:04,VALID,918.56,VALID,0,VALID,97.1833,VALID,0,VALID,19.7418,VALID,118,VALID,0.560547,
2014-01-26, 00:29:04,VALID,918.551,VALID,0,VALID,97.1833,VALID,0,VALID,19.7433,VALID,118,VALID,0.791406,
2014-01-26, 00:30:04,VALID,918.552,VALID,0,VALID,97.1757,VALID,0,VALID,19.7028,VALID,118,VALID,0.895312,
2014-01-26, 00:31:04,VALID,918.516,VALID,0,VALID,97.1833,VALID,0,VALID,19.6833,VALID,118,VALID,1.00039,
2014-01-26, 00:32:04,VALID,918.449,VALID,0,VALID,97.1833,VALID,0,VALID,19.6653,VALID,118,VALID,1.14961,
2014-01-26, 00:33:04,VALID,918.413,VALID,0,VALID,97.2138,VALID,0,VALID,19.6263,VALID,118,VALID,1.36641,
2014-01-26, 00:34:04,VALID,918.416,VALID,0,VALID,97.1909,VALID,0,VALID,19.5873,VALID,118,VALID,1.33125,
2014-01-26, 00:35:04,VALID,918.396,VALID,0,VALID,97.1986,VALID,0,VALID,19.5468,VALID,80,VALID,1.13633,
2014-01-26, 00:36:04,VALID,918.394,VALID,0,VALID,97.2138,VALID,0,VALID,19.5288,VALID,80,VALID,0.823828,
2014-01-26, 00:37:04,VALID,918.393,VALID,0,VALID,97.2138,VALID,0,VALID,19.5273,VALID,80,VALID,0.492578,
2014-01-26, 00:38:04,VALID,918.404,VALID,0,VALID,97.2214,VALID,0,VALID,19.5078,VALID,80,VALID,0.444141,
2014-01-26, 00:39:04,VALID,918.425,VALID,0,VALID,97.2214,VALID,0,VALID,19.5078,VALID,80,VALID,0,
2014-01-26, 00:40:04,VALID,918.392,VALID,0,VALID,97.229,VALID,0,VALID,19.5288,VALID,80,VALID,0.305859,
2014-01-26, 00:41:04,VALID,918.373,VALID,0,VALID,97.229,VALID,0,VALID,19.5288,VALID,80,VALID,0.591797,
2014-01-26, 00:42:04,VALID,918.322,VALID,0,VALID,97.2062,VALID,0,VALID,19.5678,VALID,80,VALID,0.49375,
2014-01-26, 00:43:04,VALID,918.308,VALID,0,VALID,97.2062,VALID,0,VALID,19.5873,VALID,80,VALID,0,
2014-01-26, 00:44:04,VALID,918.301,VALID,0,VALID,97.2214,VALID,0,VALID,19.5873,VALID,80,VALID,0,
2014-01-26, 00:45:04,VALID,918.326,VALID,0,VALID,97.2138,VALID,0,VALID,19.5273,VALID,80,VALID,0,
2014-01-26, 00:46:04,VALID,918.286,VALID,0,VALID,97.2214,VALID,0,VALID,19.5078,VALID,80,VALID,0.232812,
2014-01-26, 00:47:04,VALID,918.271,VALID,0,VALID,97.2214,VALID,0,VALID,19.4103,VALID,80,VALID,0.446094,
2014-01-26, 00:48:04,VALID,918.275,VALID,0,VALID,97.2519,VALID,0,VALID,19.4103,VALID,80,VALID,0.558594,
2014-01-26, 00:49:04,VALID,918.269,VALID,0,VALID,97.2214,VALID,0,VALID,19.3713,VALID,80,VALID,0.644922,
2014-01-26, 00:50:04,VALID,918.285,VALID,0,VALID,97.2367,VALID,0,VALID,19.3323,VALID,80,VALID,0.465625,
2014-01-26, 00:51:04,VALID,918.294,VALID,0,VALID,97.2519,VALID,0,VALID,19.2933,VALID,80,VALID,0.347266,
2014-01-26, 00:52:04,VALID,918.315,VALID,0,VALID,97.2367,VALID,0,VALID,19.3338,VALID,80,VALID,0.559766,
2014-01-26, 00:53:04,VALID,918.293,VALID,0,VALID,97.229,VALID,0,VALID,19.3728,VALID,80,VALID,0.422266,
2014-01-26, 00:54:04,VALID,918.25,VALID,0,VALID,97.2519,VALID,0,VALID,19.3728,VALID,80,VALID,0.487109,
2014-01-26, 00:55:04,VALID,918.243,VALID,0,VALID,97.2443,VALID,0,VALID,19.4118,VALID,80,VALID,0.197656,
2014-01-26, 00:56:04,VALID,918.215,VALID,0,VALID,97.2443,VALID,0,VALID,19.4118,VALID,80,VALID,0,
2014-01-26, 00:57:04,VALID,918.191,VALID,0,VALID,97.2443,VALID,0,VALID,19.4508,VALID,80,VALID,0,
2014-01-26, 00:58:04,VALID,918.191,VALID,0,VALID,97.2367,VALID,0,VALID,19.4508,VALID,80,VALID,0,
2014-01-26, 00:59:04,VALID,918.167,VALID,0,VALID,97.2367,VALID,0,VALID,19.4103,VALID,80,VALID,0,
2014-01-26, 01:00:04,VALID,918.163,VALID,0,VALID,97.2443,VALID,0,VALID,19.4313,VALID,80,VALID,0,
2014-01-26, 01:01:04,VALID,918.101,VALID,0,VALID,97.2443,VALID,0,VALID,19.4313,VALID,80,VALID,0,
2014-01-26, 01:02:04,VALID,918.072,VALID,0,VALID,97.2748,VALID,0,VALID,19.3533,VALID,80,VALID,0,
2014-01-26, 01:03:04,VALID,918.094,VALID,0,VALID,97.2595,VALID,0,VALID,19.2948,VALID,80,VALID,0.301172,
2014-01-26, 01:04:04,VALID,918.091,VALID,0,VALID,97.2672,VALID,0,VALID,19.2363,VALID,80,VALID,0.334375,
2014-01-26, 01:05:04,VALID,918.075,VALID,0,VALID,97.2824,VALID,0,VALID,19.2168,VALID,80,VALID,0.344531,
2014-01-26, 01:06:04,VALID,918.088,VALID,0,VALID,97.2824,VALID,0,VALID,19.1973,VALID,80,VALID,0.000390625,
2014-01-26, 01:07:04,VALID,918.083,VALID,0,VALID,97.2824,VALID,0,VALID,19.1568,VALID,80,VALID,0.345703,
2014-01-26, 01:08:04,VALID,918.05,VALID,0,VALID,97.2824,VALID,0,VALID,19.0803,VALID,80,VALID,0.521875,
2014-01-26, 01:09:04,VALID,918.052,VALID,0,VALID,97.3205,VALID,0,VALID,19.0023,VALID,80,VALID,0.619141,
2014-01-26, 01:10:04,VALID,918.032,VALID,0,VALID,97.3053,VALID,0,VALID,18.9438,VALID,80,VALID,0.894531,
2014-01-26, 01:11:04,VALID,918.036,VALID,0,VALID,97.3281,VALID,0,VALID,18.8853,VALID,80,VALID,1.23008,
2014-01-26, 01:12:04,VALID,918.079,VALID,0,VALID,97.3129,VALID,0,VALID,18.8658,VALID,80,VALID,1.12969,
2014-01-26, 01:13:04,VALID,918.051,VALID,0,VALID,97.3205,VALID,0,VALID,18.9048,VALID,80,VALID,0.983594,
2014-01-26, 01:14:04,VALID,918.016,VALID,0,VALID,97.3205,VALID,0,VALID,18.9633,VALID,80,VALID,0.858984,
2014-01-26, 01:15:04,VALID,918,VALID,0,VALID,97.3205,VALID,0,VALID,18.9828,VALID,80,VALID,0.742969,
2014-01-26, 01:16:04,VALID,917.979,VALID,0,VALID,97.3053,VALID,0,VALID,19.0803,VALID,80,VALID,0.901172,
2014-01-26, 01:17:04,VALID,917.972,VALID,0,VALID,97.3053,VALID,0,VALID,19.0998,VALID,80,VALID,1.00469,
2014-01-26, 01:18:04,VALID,917.992,VALID,0,VALID,97.2824,VALID,0,VALID,19.1583,VALID,80,VALID,1.16367,
2014-01-26, 01:19:04,VALID,917.997,VALID,0,VALID,97.29,VALID,0,VALID,19.1973,VALID,80,VALID,1.15234,
2014-01-26, 01:20:04,VALID,917.975,VALID,0,VALID,97.2824,VALID,0,VALID,19.2363,VALID,80,VALID,1.03281,
2014-01-26, 01:21:04,VALID,917.986,VALID,0,VALID,97.3053,VALID,0,VALID,19.2753,VALID,80,VALID,0.551562,
2014-01-26, 01:22:04,VALID,917.98,VALID,0,VALID,97.2977,VALID,0,VALID,19.2168,VALID,94,VALID,0.554297,
2014-01-26, 01:23:04,VALID,917.966,VALID,0,VALID,97.2977,VALID,0,VALID,19.1388,VALID,94,VALID,0.751172,
2014-01-26, 01:24:04,VALID,917.934,VALID,0,VALID,97.3205,VALID,0,VALID,19.1388,VALID,109,VALID,0.666797,
2014-01-26, 01:25:04,VALID,917.946,VALID,0,VALID,97.3205,VALID,0,VALID,19.1583,VALID,109,VALID,0.528125,
2014-01-26, 01:26:04,VALID,917.956,VALID,0,VALID,97.2977,VALID,0,VALID,19.1778,VALID,109,VALID,0.622656,
2014-01-26, 01:27:04,VALID,917.919,VALID,0,VALID,97.3129,VALID,0,VALID,19.2168,VALID,109,VALID,0.546094,
2014-01-26, 01:28:04,VALID,917.936,VALID,0,VALID,97.2824,VALID,0,VALID,19.2753,VALID,109,VALID,0.608594,
2014-01-26, 01:29:04,VALID,917.913,VALID,0,VALID,97.2748,VALID,0,VALID,19.2948,VALID,109,VALID,0.590625,
2014-01-26, 01:30:04,VALID,917.872,VALID,0,VALID,97.2977,VALID,0,VALID,19.3143,VALID,109,VALID,0.620703,
2014-01-26, 01:31:04,VALID,917.873,VALID,0,VALID,97.2824,VALID,0,VALID,19.3338,VALID,109,VALID,0.546484,
2014-01-26, 01:32:04,VALID,917.859,VALID,0,VALID,97.2748,VALID,0,VALID,19.3547,VALID,109,VALID,0.614844,
2014-01-26, 01:33:04,VALID,917.869,VALID,0,VALID,97.2824,VALID,0,VALID,19.3338,VALID,109,VALID,0.644531,
2014-01-26, 01:34:04,VALID,917.832,VALID,0,VALID,97.2824,VALID,0,VALID,19.3728,VALID,108,VALID,0.741406,
2014-01-26, 01:35:04,VALID,917.807,VALID,0,VALID,97.29,VALID,0,VALID,19.3923,VALID,108,VALID,0.553125,
2014-01-26, 01:36:04,VALID,917.8,VALID,0,VALID,97.2672,VALID,0,VALID,19.3923,VALID,108,VALID,0.640234,
2014-01-26, 01:37:04,VALID,917.772,VALID,0,VALID,97.2824,VALID,0,VALID,19.3937,VALID,108,VALID,0.588281,
2014-01-26, 01:38:04,VALID,917.766,VALID,0,VALID,97.2748,VALID,0,VALID,19.3533,VALID,109,VALID,0.627344,
2014-01-26, 01:39:04,VALID,917.739,VALID,0,VALID,97.29,VALID,0,VALID,19.3338,VALID,109,VALID,0.730469,
2014-01-26, 01:40:04,VALID,917.735,VALID,0,VALID,97.2824,VALID,0,VALID,19.3742,VALID,109,VALID,0.557422,
2014-01-26, 01:41:04,VALID,917.742,VALID,0,VALID,97.29,VALID,0,VALID,19.3533,VALID,116,VALID,0.4375,
2014-01-26, 01:42:04,VALID,917.743,VALID,0,VALID,97.29,VALID,0,VALID,19.3728,VALID,116,VALID,0.727344,
2014-01-26, 01:43:04,VALID,917.747,VALID,0,VALID,97.2672,VALID,0,VALID,19.3923,VALID,116,VALID,0.566016,
2014-01-26, 01:44:04,VALID,917.708,VALID,0,VALID,97.2824,VALID,0,VALID,19.4118,VALID,116,VALID,0.398047,
2014-01-26, 01:45:04,VALID,917.735,VALID,0,VALID,97.2748,VALID,0,VALID,19.4118,VALID,116,VALID,0.571094,
2014-01-26, 01:46:04,VALID,917.727,VALID,0,VALID,97.2824,VALID,0,VALID,19.4313,VALID,116,VALID,0.690625,
2014-01-26, 01:47:04,VALID,917.721,VALID,0,VALID,97.2824,VALID,0,VALID,19.4313,VALID,116,VALID,0.587109,
2014-01-26, 01:48:04,VALID,917.742,VALID,0,VALID,97.2672,VALID,0,VALID,19.4313,VALID,116,VALID,0.516016,
2014-01-26, 01:49:04,VALID,917.739,VALID,0,VALID,97.2824,VALID,0,VALID,19.4703,VALID,116,VALID,0.663672,
2014-01-26, 01:50:04,VALID,917.724,VALID,0,VALID,97.29,VALID,0,VALID,19.4703,VALID,116,VALID,0.502344,
2014-01-26, 01:51:04,VALID,917.672,VALID,0,VALID,97.2672,VALID,0,VALID,19.4508,VALID,116,VALID,0.483594,
2014-01-26, 01:52:04,VALID,917.673,VALID,0,VALID,97.2672,VALID,0,VALID,19.4508,VALID,116,VALID,0.488281,
2014-01-26, 01:53:04,VALID,917.613,VALID,0,VALID,97.2824,VALID,0,VALID,19.4703,VALID,116,VALID,0.616406,
2014-01-26, 01:54:04,VALID,917.616,VALID,0,VALID,97.2595,VALID,0,VALID,19.4508,VALID,116,VALID,0.490625,
2014-01-26, 01:55:04,VALID,917.632,VALID,0,VALID,97.2824,VALID,0,VALID,19.4508,VALID,116,VALID,0.579297,
2014-01-26, 01:56:04,VALID,917.6,VALID,0,VALID,97.29,VALID,0,VALID,19.4508,VALID,116,VALID,0.444141,
2014-01-26, 01:57:04,VALID,917.617,VALID,0,VALID,97.2824,VALID,0,VALID,19.4493,VALID,116,VALID,0.533984,
2014-01-26, 01:58:04,VALID,917.587,VALID,0,VALID,97.29,VALID,0,VALID,19.4508,VALID,116,VALID,0.591016,
2014-01-26, 01:59:04,VALID,917.594,VALID,0,VALID,97.2977,VALID,0,VALID,19.4508,VALID,116,VALID,0.440625,
2014-01-26, 02:00:04,VALID,917.6,VALID,0,VALID,97.2824,VALID,0,VALID,19.4118,VALID,116,VALID,0.600781,
2014-01-26, 02:01:04,VALID,917.6,VALID,0,VALID,97.2977,VALID,0,VALID,19.4118,VALID,116,VALID,0.364453,
2014-01-26, 02:02:04,VALID,917.581,VALID,0,VALID,97.3053,VALID,0,VALID,19.4118,VALID,116,VALID,0.660937,
2014-01-26, 02:03:04,VALID,917.57,VALID,0,VALID,97.2977,VALID,0,VALID,19.3923,VALID,115,VALID,0.689844,
2014-01-26, 02:04:04,VALID,917.57,VALID,0,VALID,97.3053,VALID,0,VALID,19.4103,VALID,115,VALID,0.805469,
2014-01-26, 02:05:04,VALID,917.547,VALID,0,VALID,97.2748,VALID,0,VALID,19.4313,VALID,115,VALID,0.689062,
2014-01-26, 02:06:04,VALID,917.547,VALID,0,VALID,97.3053,VALID,0,VALID,19.4103,VALID,115,VALID,0.636719,
2014-01-26, 02:07:04,VALID,917.576,VALID,0,VALID,97.2977,VALID,0,VALID,19.4298,VALID,116,VALID,0.7125,
2014-01-26, 02:08:04,VALID,917.569,VALID,0,VALID,97.3129,VALID,0,VALID,19.4103,VALID,115,VALID,0.773828,
2014-01-26, 02:09:04,VALID,917.541,VALID,0,VALID,97.2977,VALID,0,VALID,19.3713,VALID,116,VALID,0.810938,
2014-01-26, 02:10:04,VALID,917.539,VALID,0,VALID,97.3358,VALID,0,VALID,19.3128,VALID,116,VALID,0.803516,
2014-01-26, 02:11:04,VALID,917.514,VALID,0,VALID,97.3434,VALID,0,VALID,19.2948,VALID,124,VALID,1.11484,
2014-01-26, 02:12:04,VALID,917.487,VALID,0,VALID,97.3281,VALID,0,VALID,19.2348,VALID,129,VALID,1.04922,
2014-01-26, 02:13:04,VALID,917.46,VALID,0,VALID,97.3205,VALID,0,VALID,19.2558,VALID,142,VALID,1.00039,
2014-01-26, 02:14:04,VALID,917.511,VALID,0,VALID,97.3281,VALID,0,VALID,19.2558,VALID,139,VALID,0.967969,
2014-01-26, 02:15:04,VALID,917.49,VALID,0,VALID,97.3358,VALID,0,VALID,19.2348,VALID,137,VALID,0.625391,
2014-01-26, 02:16:04,VALID,917.495,VALID,0,VALID,97.3053,VALID,0,VALID,19.2348,VALID,138,VALID,0.900781,
2014-01-26, 02:17:04,VALID,917.486,VALID,0,VALID,97.3053,VALID,0,VALID,19.2363,VALID,147,VALID,0.925781,
2014-01-26, 02:18:04,VALID,917.489,VALID,0,VALID,97.3434,VALID,0,VALID,19.2363,VALID,139,VALID,0.678516,
2014-01-26, 02:19:04,VALID,917.443,VALID,0,VALID,97.3281,VALID,0,VALID,19.1958,VALID,143,VALID,1.0543,
2014-01-26, 02:20:04,VALID,917.471,VALID,0,VALID,97.3434,VALID,0,VALID,19.1958,VALID,139,VALID,1.05,
2014-01-26, 02:21:04,VALID,917.45,VALID,0,VALID,97.3434,VALID,0,VALID,19.2168,VALID,137,VALID,0.911328,
2014-01-26, 02:22:04,VALID,917.468,VALID,0,VALID,97.3434,VALID,0,VALID,19.1763,VALID,134,VALID,0.670703,
2014-01-26, 02:23:04,VALID,917.438,VALID,0,VALID,97.3358,VALID,0,VALID,19.2168,VALID,137,VALID,0.953906,
2014-01-26, 02:24:04,VALID,917.397,VALID,0,VALID,97.351,VALID,0,VALID,19.2168,VALID,137,VALID,1.20742,
2014-01-26, 02:25:04,VALID,917.35,VALID,0,VALID,97.3358,VALID,0,VALID,19.2168,VALID,137,VALID,0.907031,
2014-01-26, 02:26:04,VALID,917.328,VALID,0,VALID,97.351,VALID,0,VALID,19.1973,VALID,137,VALID,0.774219,
2014-01-26, 02:27:04,VALID,917.31,VALID,0,VALID,97.3586,VALID,0,VALID,19.1568,VALID,138,VALID,0.560547,
2014-01-26, 02:28:04,VALID,917.29,VALID,0,VALID,97.3586,VALID,0,VALID,19.1373,VALID,147,VALID,0.585547,
2014-01-26, 02:29:04,VALID,917.267,VALID,0,VALID,97.3358,VALID,0,VALID,19.1778,VALID,147,VALID,0.688281,
2014-01-26, 02:30:04,VALID,917.288,VALID,0,VALID,97.3358,VALID,0,VALID,19.1778,VALID,147,VALID,0.473047,
2014-01-26, 02:31:04,VALID,917.266,VALID,0,VALID,97.3586,VALID,0,VALID,19.1583,VALID,147,VALID,0.196875,
2014-01-26, 02:32:04,VALID,917.296,VALID,0,VALID,97.3358,VALID,0,VALID,19.1778,VALID,147,VALID,0.171875,
2014-01-26, 02:33:04,VALID,917.279,VALID,0,VALID,97.3586,VALID,0,VALID,19.1583,VALID,147,VALID,0,
2014-01-26, 02:34:04,VALID,917.244,VALID,0,VALID,97.3663,VALID,0,VALID,19.1583,VALID,147,VALID,0,
2014-01-26, 02:35:04,VALID,917.213,VALID,0,VALID,97.351,VALID,0,VALID,19.1193,VALID,147,VALID,0,
2014-01-26, 02:36:04,VALID,917.21,VALID,0,VALID,97.351,VALID,0,VALID,19.0998,VALID,147,VALID,0,
2014-01-26, 02:37:04,VALID,917.197,VALID,0,VALID,97.3815,VALID,0,VALID,19.0803,VALID,147,VALID,0,
2014-01-26, 02:38:04,VALID,917.166,VALID,0,VALID,97.3815,VALID,0,VALID,19.0218,VALID,147,VALID,0,
2014-01-26, 02:39:04,VALID,917.134,VALID,0,VALID,97.3891,VALID,0,VALID,19.0008,VALID,147,VALID,0.238281,
2014-01-26, 02:40:04,VALID,917.145,VALID,0,VALID,97.3663,VALID,0,VALID,19.0218,VALID,147,VALID,0.455469,
2014-01-26, 02:41:04,VALID,917.117,VALID,0,VALID,97.3815,VALID,0,VALID,18.9424,VALID,147,VALID,0.513281,
2014-01-26, 02:42:04,VALID,917.115,VALID,0.2,VALID,97.3891,VALID,0.107441,VALID,18.8644,VALID,147,VALID,0.578906,
2014-01-26, 02:43:04,VALID,917.12,VALID,0,VALID,97.4044,VALID,0,VALID,18.8463,VALID,141,VALID,0.506641,
2014-01-26, 02:44:04,VALID,917.089,VALID,0,VALID,97.4196,VALID,0,VALID,18.8059,VALID,141,VALID,0.392969,
2014-01-26, 02:45:04,VALID,917.11,VALID,0,VALID,97.3968,VALID,0,VALID,18.8268,VALID,141,VALID,0.596875,
2014-01-26, 02:46:04,VALID,917.115,VALID,0,VALID,97.3968,VALID,0,VALID,18.8463,VALID,141,VALID,0.479688,
2014-01-26, 02:47:04,VALID,917.076,VALID,0,VALID,97.412,VALID,0,VALID,18.8463,VALID,141,VALID,0.469922,
2014-01-26, 02:48:04,VALID,917.044,VALID,0,VALID,97.412,VALID,0,VALID,18.8254,VALID,141,VALID,0.588281,
2014-01-26, 02:49:04,VALID,916.981,VALID,0,VALID,97.4196,VALID,0,VALID,18.8073,VALID,141,VALID,0.541797,
2014-01-26, 02:50:04,VALID,916.983,VALID,0,VALID,97.4425,VALID,0,VALID,18.7474,VALID,141,VALID,0.483594,
2014-01-26, 02:51:04,VALID,916.969,VALID,0,VALID,97.4349,VALID,0,VALID,18.7474,VALID,141,VALID,0.246875,
2014-01-26, 02:52:04,VALID,916.972,VALID,0,VALID,97.4425,VALID,0.107441,VALID,18.7098,VALID,141,VALID,0,
2014-01-26, 02:53:04,VALID,916.95,VALID,0,VALID,97.4273,VALID,0,VALID,18.6319,VALID,141,VALID,0.000390625,
2014-01-26, 02:54:04,VALID,916.925,VALID,0,VALID,97.4654,VALID,0,VALID,18.5149,VALID,141,VALID,0.519141,
2014-01-26, 02:55:04,VALID,916.935,VALID,0,VALID,97.4806,VALID,0,VALID,18.3979,VALID,141,VALID,0.328906,
2014-01-26, 02:56:04,VALID,916.913,VALID,0,VALID,97.4654,VALID,0,VALID,18.3979,VALID,139,VALID,0.43125,
2014-01-26, 02:57:04,VALID,916.944,VALID,0,VALID,97.4654,VALID,0,VALID,18.3979,VALID,139,VALID,0.382031,
2014-01-26, 02:58:04,VALID,916.931,VALID,0,VALID,97.473,VALID,0,VALID,18.4174,VALID,139,VALID,0.389062,
2014-01-26, 02:59:04,VALID,916.906,VALID,0,VALID,97.473,VALID,0,VALID,18.4174,VALID,139,VALID,0.444531,
2014-01-26, 03:00:04,VALID,916.943,VALID,0,VALID,97.4654,VALID,0,VALID,18.3979,VALID,139,VALID,0.521094,
2014-01-26, 03:01:04,VALID,916.939,VALID,0,VALID,97.4882,VALID,0,VALID,18.4174,VALID,139,VALID,0.461328,
2014-01-26, 03:02:04,VALID,916.929,VALID,0,VALID,97.4425,VALID,0,VALID,18.4564,VALID,139,VALID,0.50625,
2014-01-26, 03:03:04,VALID,916.927,VALID,0,VALID,97.4577,VALID,0,VALID,18.4564,VALID,139,VALID,0.407422,
2014-01-26, 03:04:04,VALID,916.95,VALID,0,VALID,97.4654,VALID,0,VALID,18.4369,VALID,139,VALID,0.144531,
2014-01-26, 03:05:04,VALID,916.945,VALID,0,VALID,97.4806,VALID,0,VALID,18.4174,VALID,139,VALID,0,
2014-01-26, 03:06:04,VALID,916.965,VALID,0,VALID,97.4806,VALID,0,VALID,18.4174,VALID,139,VALID,0,
2014-01-26, 03:07:04,VALID,916.933,VALID,0,VALID,97.4806,VALID,0,VALID,18.3979,VALID,139,VALID,0,
2014-01-26, 03:08:04,VALID,916.947,VALID,0,VALID,97.4959,VALID,0,VALID,18.3589,VALID,139,VALID,0.429297,
2014-01-26, 03:09:04,VALID,916.941,VALID,0,VALID,97.4882,VALID,0,VALID,18.3589,VALID,139,VALID,0.401172,
2014-01-26, 03:10:04,VALID,916.941,VALID,0,VALID,97.4654,VALID,0,VALID,18.3798,VALID,139,VALID,0.265625,
2014-01-26, 03:11:04,VALID,916.892,VALID,0,VALID,97.4806,VALID,0,VALID,18.3575,VALID,139,VALID,0.568359,
2014-01-26, 03:12:04,VALID,916.856,VALID,0,VALID,97.4882,VALID,0,VALID,18.3784,VALID,139,VALID,0.70625,
2014-01-26, 03:13:04,VALID,916.849,VALID,0,VALID,97.4654,VALID,0,VALID,18.3784,VALID,119,VALID,0.89375,
2014-01-26, 03:14:04,VALID,916.796,VALID,0,VALID,97.473,VALID,0,VALID,18.4174,VALID,111,VALID,1.06914,
2014-01-26, 03:15:04,VALID,916.823,VALID,0,VALID,97.4577,VALID,0,VALID,18.4564,VALID,111,VALID,1.20742,
2014-01-26, 03:16:04,VALID,916.777,VALID,0,VALID,97.4577,VALID,0,VALID,18.5149,VALID,111,VALID,1.12031,
2014-01-26, 03:17:04,VALID,916.792,VALID,0,VALID,97.4806,VALID,0,VALID,18.4954,VALID,111,VALID,0.798437,
2014-01-26, 03:18:04,VALID,916.777,VALID,0,VALID,97.4654,VALID,0,VALID,18.4759,VALID,111,VALID,1.10938,
2014-01-26, 03:19:04,VALID,916.795,VALID,0,VALID,97.4806,VALID,0,VALID,18.4564,VALID,77,VALID,0.964453,
2014-01-26, 03:20:04,VALID,916.802,VALID,0,VALID,97.473,VALID,0,VALID,18.5149,VALID,90,VALID,0.95625,
2014-01-26, 03:21:04,VALID,916.812,VALID,0,VALID,97.4501,VALID,0,VALID,18.5553,VALID,97,VALID,1.04492,
2014-01-26, 03:22:04,VALID,916.802,VALID,0,VALID,97.4577,VALID,0,VALID,18.5929,VALID,97,VALID,0.742578,
2014-01-26, 03:23:04,VALID,916.825,VALID,0,VALID,97.4349,VALID,0,VALID,18.6319,VALID,102,VALID,0.975781,
2014-01-26, 03:24:04,VALID,916.809,VALID,0,VALID,97.4577,VALID,0,VALID,18.7098,VALID,106,VALID,0.467187,
2014-01-26, 03:25:04,VALID,916.821,VALID,0,VALID,97.4349,VALID,0,VALID,18.7488,VALID,109,VALID,0.781641,
2014-01-26, 03:26:04,VALID,916.781,VALID,0,VALID,97.4273,VALID,0,VALID,18.7683,VALID,114,VALID,0.770703,
2014-01-26, 03:27:04,VALID,916.724,VALID,0,VALID,97.412,VALID,0,VALID,18.7878,VALID,88,VALID,0.972266,
2014-01-26, 03:28:04,VALID,916.716,VALID,0,VALID,97.4273,VALID,0,VALID,18.8073,VALID,100,VALID,1.26836,
2014-01-26, 03:29:04,VALID,916.705,VALID,0,VALID,97.412,VALID,0,VALID,18.8073,VALID,111,VALID,0.902344,
2014-01-26, 03:30:04,VALID,916.722,VALID,0,VALID,97.4273,VALID,0,VALID,18.8282,VALID,106,VALID,1.11836,
2014-01-26, 03:31:04,VALID,916.714,VALID,0,VALID,97.4349,VALID,0,VALID,18.8059,VALID,119,VALID,0.917578,
2014-01-26, 03:32:04,VALID,916.707,VALID,0,VALID,97.4196,VALID,0,VALID,18.8073,VALID,119,VALID,0.7125,
2014-01-26, 03:33:04,VALID,916.716,VALID,0,VALID,97.4425,VALID,0,VALID,18.7878,VALID,119,VALID,0.677734,
2014-01-26, 03:34:04,VALID,916.647,VALID,0,VALID,97.4425,VALID,0,VALID,18.7892,VALID,119,VALID,0.866406,
2014-01-26, 03:35:04,VALID,916.609,VALID,0,VALID,97.4501,VALID,0,VALID,18.7293,VALID,115,VALID,1.02969,
2014-01-26, 03:36:04,VALID,916.618,VALID,0,VALID,97.4425,VALID,0,VALID,18.7488,VALID,119,VALID,1.00156,
2014-01-26, 03:37:04,VALID,916.61,VALID,0,VALID,97.4425,VALID,0,VALID,18.7084,VALID,123,VALID,1.04609,
2014-01-26, 03:38:04,VALID,916.602,VALID,0,VALID,97.4501,VALID,0,VALID,18.7098,VALID,144,VALID,0.935938,
2014-01-26, 03:39:04,VALID,916.606,VALID,0,VALID,97.4501,VALID,0,VALID,18.7293,VALID,139,VALID,0.821484,
2014-01-26, 03:40:04,VALID,916.625,VALID,0,VALID,97.4425,VALID,0,VALID,18.7503,VALID,139,VALID,0.914844,
2014-01-26, 03:41:04,VALID,916.643,VALID,0,VALID,97.4425,VALID,0,VALID,18.7098,VALID,128,VALID,1.06914,
2014-01-26, 03:42:04,VALID,916.603,VALID,0,VALID,97.4425,VALID,0,VALID,18.6918,VALID,129,VALID,1.0168,
2014-01-26, 03:43:04,VALID,916.597,VALID,0,VALID,97.4577,VALID,0,VALID,18.6903,VALID,144,VALID,1.20703,
2014-01-26, 03:44:04,VALID,916.6,VALID,0,VALID,97.4577,VALID,0,VALID,18.6708,VALID,137,VALID,1.15313,
2014-01-26, 03:45:04,VALID,916.585,VALID,0,VALID,97.4577,VALID,0,VALID,18.6708,VALID,139,VALID,0.955469,
2014-01-26, 03:46:04,VALID,916.592,VALID,0,VALID,97.4501,VALID,0,VALID,18.6708,VALID,141,VALID,1.26289,